Location: Hilton Head Island
(32.2163°N, 80.7526°W)
Time: 10:04:52
(UTC-04:00)

Explorer 11/Cluster Stage 4 - Pass Details

Date: 26 February 2026
Orbit: 463 x 1175 km, 28.8° (Epoch: 13 March)

Event Time Altitude Azimuth Distance (km) Brightness Sun altitude
Rises 06:16:11 0° 196° (SSW) 4,030 10.1 -8.7°
Reaches altitude 10° 06:21:59 10° 163° (SSE) 3,005 9.9 -7.5°
Maximum altitude 06:23:42 11° 150° (SSE) 2,908 10.0 -7.1°
Drops below altitude 10° 06:25:23 10° 136° (SE) 2,935 10.3 -6.8°
Sets 06:30:44 0° 102° (ESE) 3,730 12.7 -5.7°
